Regional Weather Roundup
Issued by NWS Newport/Morehead, NC

Current Version | Previous Version | Graphics & Text | Print | Product List | Glossary Off
Versions: 1 2 3 4 5 6 7 8 9 10 11 12 13 14 15 16 17 18 19 20 21 22 23 24 25 26 27 28 29 30 31 32 33 34 35 36 37 38 39 40 41 42 43 44 45 46 47 48 49 50

000
ASUS42 KMHX 181810
RWRMHX
WEATHER ROUNDUP FOR EASTERN NORTH CAROLINA
NATIONAL WEATHER SERVICE NEWPORT/MOREHEAD CITY NC
200 PM EDT THU SEP 18 2014

NOTE: "FAIR" INDICATES FEW OR NO CLOUDS BELOW 12,000 FEET
WITH NO SIGNIFICANT WEATHER AND/OR OBSTRUCTIONS TO VISIBILITY

NCZ015>017-031-032-045>047-102-103-181900-
NORTH COAST

CITY           SKY/WX    TMP DP  RH WIND       PRES   REMARKS
EDENTON        PTSUNNY   77  59  53 E7        30.00F
ELIZABETH CITY SUNNY     76  56  49 NE10      30.01F
KITTY HAWK     CLEAR     75  55  50 NE7       30.00S HAZE
MANTEO         SUNNY     74  56  54 NE12      30.01S

$$

NCZ045>047-081-094-103-104-181900-
CENTRAL COAST

CITY           SKY/WX    TMP DP  RH WIND       PRES   REMARKS
FRISCO         SUNNY     74  56  53 NE10G22   29.99S
SWANQUARTER      N/A     79 N/A N/A E6G14     29.94S

$$

NCZ095-097-098-100-101-181900-
SOUTHERN COAST

CITY           SKY/WX    TMP DP  RH WIND       PRES   REMARKS
BEAUFORT       SUNNY     78  60  53 E12       29.98S
CEDAR ISLAND     N/A     75 N/A N/A NE15      30.03S
JACKSONVILLE   PTSUNNY   81  62  52 E8        29.98S
NEWPORT        NOT AVBL
PINEY ISLAND   CLEAR     78  59  51 E14       29.99S
WILMINGTON     CLOUDY    78  65  63 E9        29.97S


$$

NCZ011>013-027>030-043-044-078>080-089-090>093-098-181900-
COASTAL PLAIN

CITY           SKY/WX    TMP DP  RH WIND       PRES   REMARKS
AHOSKIE        MOSUNNY   76  58  53 NE3       30.01S
CLINTON        MOSUNNY   81  64  56 E7        29.99S
ELIZABETHTOWN  MOSUNNY   80  64  59 E3        29.98S
GOLDSBORO      NOT AVBL
GREENVILLE     MOSUNNY   77  59  53 CALM      30.02S
HAVELOCK       SUNNY     79  61  53 E14       30.00S
KENANSVILLE    SUNNY     79  58  48 E5        30.00S
KINSTON        MOSUNNY   81  61  50 N3        30.00F
NEW BERN       PTSUNNY   81  60  48 N8        30.00S
RICHLANDS      PTSUNNY   81  61  50 NE8       29.99S
ROANOKE RAPIDS NOT AVBL
ROCKY MOUNT    MOSUNNY   79  59  50 VRB3      30.00F
WASHINGTON     SUNNY     78  59  51 NE5       30.00F
WHITEVILLE     MOSUNNY   80  67  64 NE5       29.96F

$$

AMZ130-135-150-152-154-156-158-170-250-252-270-ANZ085-086-088-633-658-670-181900-
MARINE OBSERVATIONS

STATION/POSITION TIME  TEMP    WIND        PRES    WAVE   SWELL
                       AIR SEA DIR/SP/G            HT/PER HT/PER
                 (UTC) (F)     (DEG/KT/KT) (MB)    (FT/S) (FT/S)
CHESAPEAKE LIGHT 1700   70      40/ 10/ 11 1017.3
BUOY 44014       1800   72 77   40/ 14/ 16 1015.5    4/13   3/13
DUCK             1800   71 75   50/ 12/ 13 1015.6
2E DUCK          1800                        N/A     4/12   2/12
OREGON INLET     1800   73 74   30/ 13/ 17 1015.8
BUOY 44095       1800      76                N/A     5/13   3/13
20E OREGON INLET NOT AVBL
HATTERAS CG      1800   73 76   20/ 13/ 17 1016.0
DIAMOND BUOY     1800   74      10/ 16/ 19 1015.0    5/12   3/12
CAPE LOOKOUT     1700   75      50/ 17/ 19 1015.4
BEAUFORT LAB     1800   78 78   60/  8/ 13 1014.9
30 SE NEW RIVER  1800   77 83   50/ 16/ 17 1014.9    5/12   3/12
5 SE WRIGHTSVILL 1700   74 81   80/ 14/ 17   N/A
BUOY 41002       1718   79 83   30/  8/ 10 1013.7    3/12   3/12
BUOY 41004       1800   80 83   20/  6/  8 1013.8    3/10   3/10

$$



USA.gov is the U.S. government's official web portal to all federal, state and local government web resources and services.